Time,TemperatureF,DewpointF,PressureIn,WindDirection,WindDirectionDegrees,WindSpeedMPH,WindSpeedGustMPH,Humidity,HourlyPrecipIn,Conditions,Clouds,dailyrainin,SoftwareType,DateUTC
2013-10-07 00:01:00,77.2,74.7,29.90,North,0,1.0,6.0,92,0.00,,,0.00,meteohub,2013-10-07 04:01:00,
2013-10-07 00:02:00,77.2,74.7,29.90,North,0,0.0,6.0,92,0.00,,,0.00,meteohub,2013-10-07 04:02:00,
2013-10-07 00:04:00,77.2,74.7,29.90,North,0,0.0,6.0,92,0.00,,,0.00,meteohub,2013-10-07 04:04:00,
2013-10-07 00:05:00,77.2,74.7,29.90,North,0,0.0,6.0,92,0.00,,,0.00,meteohub,2013-10-07 04:05:00,
2013-10-07 00:09:00,77.2,74.7,29.89,North,0,1.0,6.0,92,0.00,,,0.00,meteohub,2013-10-07 04:09:00,
2013-10-07 00:15:00,77.0,74.5,29.89,North,0,0.0,6.0,92,0.00,,,0.00,meteohub,2013-10-07 04:15:00,
2013-10-07 00:21:00,77.0,74.5,29.89,North,0,0.0,5.0,92,0.00,,,0.00,meteohub,2013-10-07 04:21:00,
2013-10-07 00:27:00,76.8,74.3,29.89,North,0,1.0,5.0,92,0.00,,,0.00,meteohub,2013-10-07 04:27:00,
2013-10-07 00:32:00,76.8,74.3,29.89,North,0,0.0,5.0,92,0.00,,,0.00,meteohub,2013-10-07 04:32:00,
2013-10-07 00:37:00,76.6,74.1,29.89,North,0,1.0,4.0,92,0.00,,,0.00,meteohub,2013-10-07 04:37:00,
2013-10-07 00:42:00,76.6,74.5,29.89,North,0,3.0,4.0,93,0.00,,,0.00,meteohub,2013-10-07 04:42:00,
2013-10-07 00:47:00,76.5,74.3,29.89,North,0,0.0,4.0,93,0.00,,,0.00,meteohub,2013-10-07 04:47:00,
2013-10-07 00:52:00,76.5,74.3,29.89,North,0,1.0,4.0,93,0.00,,,0.00,meteohub,2013-10-07 04:52:00,
2013-10-07 00:57:00,76.3,74.1,29.89,North,0,3.0,4.0,93,0.00,,,0.00,meteohub,2013-10-07 04:57:00,
2013-10-07 01:02:00,76.3,74.1,29.88,North,0,0.0,4.0,93,0.00,,,0.00,meteohub,2013-10-07 05:02:00,
2013-10-07 01:07:00,75.9,73.8,29.88,North,0,0.0,4.0,93,0.00,,,0.00,meteohub,2013-10-07 05:07:00,
2013-10-07 01:12:00,75.7,73.6,29.88,North,0,2.0,4.0,93,0.00,,,0.00,meteohub,2013-10-07 05:12:00,
2013-10-07 01:17:00,75.7,73.6,29.88,North,0,0.0,3.0,93,0.00,,,0.00,meteohub,2013-10-07 05:17:00,
2013-10-07 01:22:00,75.6,73.4,29.89,North,0,2.0,3.0,93,0.00,,,0.00,meteohub,2013-10-07 05:22:00,
2013-10-07 01:27:00,75.6,73.4,29.88,North,0,3.0,4.0,93,0.00,,,0.00,meteohub,2013-10-07 05:27:00,
2013-10-07 01:32:00,75.6,73.4,29.89,North,0,2.0,4.0,93,0.00,,,0.00,meteohub,2013-10-07 05:32:00,
2013-10-07 01:37:00,75.6,73.4,29.89,North,0,0.0,4.0,93,0.00,,,0.00,meteohub,2013-10-07 05:37:00,
2013-10-07 01:42:00,75.4,73.2,29.89,North,0,0.0,4.0,93,0.00,,,0.00,meteohub,2013-10-07 05:42:00,
2013-10-07 01:47:00,75.4,73.2,29.88,North,0,0.0,4.0,93,0.00,,,0.00,meteohub,2013-10-07 05:47:00,
2013-10-07 01:52:00,75.4,72.9,29.88,North,0,0.0,3.0,92,0.00,,,0.00,meteohub,2013-10-07 05:52:00,
2013-10-07 01:57:00,75.4,72.9,29.88,North,0,0.0,2.0,92,0.00,,,0.00,meteohub,2013-10-07 05:57:00,
2013-10-07 02:02:00,75.4,72.9,29.88,North,0,2.0,2.0,92,0.00,,,0.00,meteohub,2013-10-07 06:02:00,
2013-10-07 02:07:00,75.2,72.7,29.88,North,0,0.0,2.0,92,0.00,,,0.00,meteohub,2013-10-07 06:07:00,
2013-10-07 02:12:00,75.2,73.0,29.88,North,0,0.0,2.0,93,0.00,,,0.00,meteohub,2013-10-07 06:12:00,
2013-10-07 02:17:00,75.0,72.5,29.88,North,0,0.0,2.0,92,0.00,,,0.00,meteohub,2013-10-07 06:17:00,
2013-10-07 02:22:00,75.0,72.9,29.87,North,0,0.0,2.0,93,0.00,,,0.00,meteohub,2013-10-07 06:22:00,
2013-10-07 02:27:00,74.8,72.7,29.87,North,0,0.0,0.0,93,0.00,,,0.00,meteohub,2013-10-07 06:27:00,
2013-10-07 02:32:00,74.8,72.7,29.87,North,0,0.0,1.0,93,0.00,,,0.00,meteohub,2013-10-07 06:32:00,
2013-10-07 02:37:00,74.8,72.7,29.86,North,0,0.0,1.0,93,0.00,,,0.00,meteohub,2013-10-07 06:37:00,
2013-10-07 02:42:00,74.8,72.7,29.86,North,0,0.0,2.0,93,0.00,,,0.00,meteohub,2013-10-07 06:42:00,
2013-10-07 02:47:00,74.8,72.7,29.86,North,0,0.0,2.0,93,0.00,,,0.00,meteohub,2013-10-07 06:47:00,
2013-10-07 02:53:00,74.8,72.7,29.86,North,0,0.0,1.0,93,0.00,,,0.00,meteohub,2013-10-07 06:53:00,
2013-10-07 02:59:00,74.8,72.7,29.86,North,0,0.0,1.0,93,0.00,,,0.00,meteohub,2013-10-07 06:59:00,
2013-10-07 03:05:00,74.8,72.7,29.86,North,0,0.0,2.0,93,0.00,,,0.00,meteohub,2013-10-07 07:05:00,
2013-10-07 03:11:00,74.7,72.5,29.86,North,0,0.0,2.0,93,0.00,,,0.00,meteohub,2013-10-07 07:11:00,
2013-10-07 03:17:00,74.7,72.9,29.86,North,0,0.0,0.0,94,0.00,,,0.00,meteohub,2013-10-07 07:17:00,
2013-10-07 03:22:00,74.7,72.9,29.85,North,0,0.0,0.0,94,0.00,,,0.00,meteohub,2013-10-07 07:22:00,
2013-10-07 03:27:00,74.5,72.7,29.85,North,0,0.0,0.0,94,0.00,,,0.00,meteohub,2013-10-07 07:27:00,
2013-10-07 03:32:00,74.5,72.7,29.85,North,0,0.0,0.0,94,0.00,,,0.00,meteohub,2013-10-07 07:32:00,
2013-10-07 03:37:00,74.5,72.7,29.85,North,0,0.0,0.0,94,0.00,,,0.00,meteohub,2013-10-07 07:37:00,
2013-10-07 03:42:00,74.3,72.5,29.85,North,0,0.0,0.0,94,0.00,,,0.00,meteohub,2013-10-07 07:42:00,
2013-10-07 03:47:00,74.1,72.3,29.85,North,0,0.0,0.0,94,0.00,,,0.00,meteohub,2013-10-07 07:47:00,
2013-10-07 03:52:00,74.1,72.3,29.85,North,0,0.0,0.0,94,0.00,,,0.00,meteohub,2013-10-07 07:52:00,
2013-10-07 03:57:00,73.9,72.1,29.85,North,0,0.0,0.0,94,0.00,,,0.00,meteohub,2013-10-07 07:57:00,
2013-10-07 04:02:00,73.9,72.1,29.85,North,0,0.0,0.0,94,0.00,,,0.00,meteohub,2013-10-07 08:02:00,
2013-10-07 04:07:00,73.8,72.0,29.85,North,0,0.0,0.0,94,0.00,,,0.00,meteohub,2013-10-07 08:07:00,
2013-10-07 04:12:00,73.8,72.3,29.85,North,0,0.0,0.0,95,0.00,,,0.00,meteohub,2013-10-07 08:12:00,
2013-10-07 04:17:00,73.6,72.1,29.85,North,0,0.0,0.0,95,0.00,,,0.00,meteohub,2013-10-07 08:17:00,
2013-10-07 04:22:00,73.6,72.1,29.85,North,0,0.0,0.0,95,0.00,,,0.00,meteohub,2013-10-07 08:22:00,
2013-10-07 04:27:00,73.6,72.1,29.84,North,0,0.0,0.0,95,0.00,,,0.00,meteohub,2013-10-07 08:27:00,
2013-10-07 04:32:00,73.6,72.1,29.84,North,0,0.0,0.0,95,0.00,,,0.00,meteohub,2013-10-07 08:32:00,
2013-10-07 04:37:00,73.6,72.1,29.84,North,0,0.0,0.0,95,0.00,,,0.00,meteohub,2013-10-07 08:37:00,
2013-10-07 04:42:00,73.6,72.1,29.84,North,0,0.0,0.0,95,0.00,,,0.00,meteohub,2013-10-07 08:42:00,
2013-10-07 04:47:00,73.6,72.1,29.84,North,0,0.0,0.0,95,0.00,,,0.00,meteohub,2013-10-07 08:47:00,
2013-10-07 04:52:00,73.6,72.1,29.84,North,0,1.0,2.0,95,0.00,,,0.00,meteohub,2013-10-07 08:52:00,
2013-10-07 04:57:00,73.8,72.3,29.84,North,0,0.0,3.0,95,0.00,,,0.00,meteohub,2013-10-07 08:57:00,
2013-10-07 05:02:00,73.8,72.3,29.84,North,0,0.0,3.0,95,0.00,,,0.00,meteohub,2013-10-07 09:02:00,
2013-10-07 05:07:00,73.8,72.3,29.84,North,0,0.0,5.0,95,0.00,,,0.00,meteohub,2013-10-07 09:07:00,
2013-10-07 05:12:00,73.8,72.3,29.84,North,0,0.0,5.0,95,0.00,,,0.00,meteohub,2013-10-07 09:12:00,
2013-10-07 05:17:00,73.8,72.3,29.84,North,0,0.0,5.0,95,0.00,,,0.00,meteohub,2013-10-07 09:17:00,
2013-10-07 05:22:00,73.8,72.3,29.84,North,0,0.0,3.0,95,0.00,,,0.00,meteohub,2013-10-07 09:22:00,
2013-10-07 05:28:00,73.8,72.3,29.84,North,0,0.0,3.0,95,0.00,,,0.00,meteohub,2013-10-07 09:28:00,
2013-10-07 05:34:00,73.8,72.3,29.84,North,0,0.0,3.0,95,0.00,,,0.00,meteohub,2013-10-07 09:34:00,
2013-10-07 05:39:00,73.8,72.0,29.84,North,0,0.0,0.0,94,0.00,,,0.00,meteohub,2013-10-07 09:39:00,
2013-10-07 05:45:00,73.8,72.0,29.85,North,0,0.0,0.0,94,0.00,,,0.00,meteohub,2013-10-07 09:45:00,
2013-10-07 05:51:00,73.8,72.0,29.85,North,0,0.0,2.0,94,0.00,,,0.00,meteohub,2013-10-07 09:51:00,
2013-10-07 05:57:00,73.8,72.0,29.85,North,0,0.0,2.0,94,0.00,,,0.00,meteohub,2013-10-07 09:57:00,
2013-10-07 06:02:00,73.8,72.0,29.85,North,0,1.0,2.0,94,0.00,,,0.00,meteohub,2013-10-07 10:02:00,
2013-10-07 06:07:00,73.8,72.0,29.85,North,0,2.0,4.0,94,0.00,,,0.00,meteohub,2013-10-07 10:07:00,
2013-10-07 06:12:00,73.8,72.0,29.85,North,0,0.0,4.0,94,0.00,,,0.00,meteohub,2013-10-07 10:12:00,
2013-10-07 06:17:00,73.8,72.0,29.85,North,0,1.0,4.0,94,0.00,,,0.00,meteohub,2013-10-07 10:17:00,
2013-10-07 06:22:00,73.8,72.0,29.85,North,0,1.0,3.0,94,0.00,,,0.00,meteohub,2013-10-07 10:22:00,
2013-10-07 06:27:00,73.8,72.0,29.85,North,0,1.0,3.0,94,0.00,,,0.00,meteohub,2013-10-07 10:27:00,
2013-10-07 06:32:00,73.8,72.0,29.85,North,0,1.0,3.0,94,0.00,,,0.00,meteohub,2013-10-07 10:32:00,
2013-10-07 06:37:00,73.8,72.0,29.85,North,0,1.0,4.0,94,0.00,,,0.00,meteohub,2013-10-07 10:37:00,
2013-10-07 06:42:00,73.8,72.0,29.85,North,0,2.0,4.0,94,0.00,,,0.00,meteohub,2013-10-07 10:42:00,
2013-10-07 06:47:00,73.8,72.0,29.85,North,0,1.0,4.0,94,0.00,,,0.00,meteohub,2013-10-07 10:47:00,
2013-10-07 06:52:00,73.8,72.0,29.85,North,0,2.0,4.0,94,0.00,,,0.00,meteohub,2013-10-07 10:52:00,
2013-10-07 06:57:00,73.8,72.0,29.85,North,0,2.0,4.0,94,0.00,,,0.00,meteohub,2013-10-07 10:57:00,
2013-10-07 07:02:00,73.8,72.0,29.84,North,0,0.0,4.0,94,0.00,,,0.00,meteohub,2013-10-07 11:02:00,
2013-10-07 07:07:00,73.8,72.0,29.85,North,0,1.0,5.0,94,0.00,,,0.00,meteohub,2013-10-07 11:07:00,
2013-10-07 07:12:00,73.8,72.0,29.85,North,0,0.0,5.0,94,0.00,,,0.00,meteohub,2013-10-07 11:12:00,
2013-10-07 07:17:00,73.8,72.0,29.84,North,0,0.0,5.0,94,0.00,,,0.00,meteohub,2013-10-07 11:17:00,
2013-10-07 07:22:00,73.9,72.1,29.84,North,0,0.0,3.0,94,0.00,,,0.00,meteohub,2013-10-07 11:22:00,
2013-10-07 07:27:00,73.9,72.1,29.84,North,0,0.0,2.0,94,0.00,,,0.00,meteohub,2013-10-07 11:27:00,
2013-10-07 07:32:00,73.9,72.1,29.85,North,0,0.0,3.0,94,0.00,,,0.00,meteohub,2013-10-07 11:32:00,
2013-10-07 07:37:00,73.9,72.1,29.85,North,0,0.0,3.0,94,0.00,,,0.00,meteohub,2013-10-07 11:37:00,
2013-10-07 07:42:00,74.1,72.3,29.85,North,0,1.0,3.0,94,0.00,,,0.00,meteohub,2013-10-07 11:42:00,
2013-10-07 07:47:00,74.1,72.3,29.85,North,0,0.0,3.0,94,0.00,,,0.00,meteohub,2013-10-07 11:47:00,
2013-10-07 07:52:00,74.1,72.3,29.85,North,0,1.0,3.0,94,0.00,,,0.00,meteohub,2013-10-07 11:52:00,
2013-10-07 07:57:00,74.3,72.5,29.85,North,0,0.0,3.0,94,0.00,,,0.00,meteohub,2013-10-07 11:57:00,
2013-10-07 08:02:00,74.5,72.7,29.85,North,0,2.0,3.0,94,0.00,,,0.00,meteohub,2013-10-07 12:02:00,
2013-10-07 08:07:00,74.7,72.9,29.85,North,0,1.0,3.0,94,0.00,,,0.00,meteohub,2013-10-07 12:07:00,
2013-10-07 08:12:00,74.7,72.9,29.86,North,0,0.0,4.0,94,0.00,,,0.00,meteohub,2013-10-07 12:12:00,
2013-10-07 08:17:00,74.8,73.0,29.86,North,0,1.0,5.0,94,0.00,,,0.00,meteohub,2013-10-07 12:17:00,
2013-10-07 08:22:00,74.8,73.0,29.86,North,0,0.0,5.0,94,0.00,,,0.00,meteohub,2013-10-07 12:22:00,
2013-10-07 08:27:00,75.0,73.2,29.86,North,0,0.0,5.0,94,0.00,,,0.00,meteohub,2013-10-07 12:27:00,
2013-10-07 08:32:00,75.2,73.4,29.86,North,0,1.0,4.0,94,0.00,,,0.00,meteohub,2013-10-07 12:32:00,
2013-10-07 08:37:00,75.4,73.2,29.86,North,0,0.0,4.0,93,0.00,,,0.00,meteohub,2013-10-07 12:37:00,
2013-10-07 08:42:00,75.6,73.8,29.86,North,0,2.0,6.0,94,0.00,,,0.00,meteohub,2013-10-07 12:42:00,
2013-10-07 08:47:00,75.7,73.6,29.86,North,0,0.0,6.0,93,0.00,,,0.00,meteohub,2013-10-07 12:47:00,
2013-10-07 08:52:00,75.9,73.8,29.86,North,0,2.0,6.0,93,0.00,,,0.00,meteohub,2013-10-07 12:52:00,
2013-10-07 08:57:00,75.9,73.8,29.86,North,0,1.0,6.0,93,0.00,,,0.00,meteohub,2013-10-07 12:57:00,
2013-10-07 09:02:00,76.5,74.3,29.87,North,0,2.0,6.0,93,0.00,,,0.00,meteohub,2013-10-07 13:02:00,
2013-10-07 09:07:00,76.6,74.5,29.87,North,0,0.0,5.0,93,0.00,,,0.00,meteohub,2013-10-07 13:07:00,
2013-10-07 09:12:00,77.2,74.7,29.87,North,0,0.0,5.0,92,0.00,,,0.00,meteohub,2013-10-07 13:12:00,
2013-10-07 09:17:00,77.4,74.8,29.87,North,0,1.0,4.0,92,0.00,,,0.00,meteohub,2013-10-07 13:17:00,
2013-10-07 09:22:00,77.5,74.7,29.87,North,0,1.0,5.0,91,0.00,,,0.00,meteohub,2013-10-07 13:22:00,
2013-10-07 09:27:00,77.5,74.7,29.88,North,0,0.0,5.0,91,0.00,,,0.00,meteohub,2013-10-07 13:27:00,
2013-10-07 09:33:00,77.7,74.5,29.88,North,0,1.0,5.0,90,0.00,,,0.00,meteohub,2013-10-07 13:33:00,
2013-10-07 09:39:00,77.7,74.3,29.88,North,0,3.0,5.0,89,0.00,,,0.00,meteohub,2013-10-07 13:39:00,
2013-10-07 09:45:00,78.1,74.8,29.88,North,0,0.0,5.0,90,0.00,,,0.00,meteohub,2013-10-07 13:45:00,
2013-10-07 09:50:00,78.3,74.7,29.88,North,0,1.0,5.0,89,0.00,,,0.00,meteohub,2013-10-07 13:50:00,
2013-10-07 09:56:00,78.6,74.8,29.88,North,0,2.0,5.0,88,0.00,,,0.00,meteohub,2013-10-07 13:56:00,
2013-10-07 10:02:00,79.2,75.4,29.88,North,0,3.0,5.0,88,0.00,,,0.00,meteohub,2013-10-07 14:02:00,
2013-10-07 10:07:00,79.7,75.2,29.87,North,0,4.0,5.0,86,0.00,,,0.00,meteohub,2013-10-07 14:07:00,
2013-10-07 10:12:00,80.1,75.2,29.87,North,0,3.0,5.0,85,0.00,,,0.00,meteohub,2013-10-07 14:12:00,
2013-10-07 10:17:00,80.2,75.0,29.87,North,0,1.0,4.0,84,0.00,,,0.00,meteohub,2013-10-07 14:17:00,
2013-10-07 10:22:00,80.1,74.8,29.87,North,0,0.0,4.0,84,0.00,,,0.00,meteohub,2013-10-07 14:22:00,
2013-10-07 10:27:00,80.2,75.4,29.87,North,0,0.0,4.0,85,0.00,,,0.00,meteohub,2013-10-07 14:27:00,
2013-10-07 10:32:00,80.1,74.8,29.87,North,0,1.0,4.0,84,0.00,,,0.00,meteohub,2013-10-07 14:32:00,
2013-10-07 10:37:00,80.2,75.4,29.87,North,0,3.0,3.0,85,0.00,,,0.00,meteohub,2013-10-07 14:37:00,
2013-10-07 10:42:00,80.4,75.6,29.87,North,0,0.0,3.0,85,0.00,,,0.00,meteohub,2013-10-07 14:42:00,
2013-10-07 10:47:00,80.8,75.6,29.87,North,0,1.0,4.0,84,0.00,,,0.00,meteohub,2013-10-07 14:47:00,
2013-10-07 10:52:00,81.0,75.7,29.87,North,0,2.0,4.0,84,0.00,,,0.00,meteohub,2013-10-07 14:52:00,
2013-10-07 10:57:00,81.1,75.9,29.86,North,0,1.0,4.0,84,0.00,,,0.00,meteohub,2013-10-07 14:57:00,
2013-10-07 11:02:00,81.1,75.6,29.86,North,0,3.0,4.0,83,0.00,,,0.00,meteohub,2013-10-07 15:02:00,
2013-10-07 11:07:00,81.1,75.6,29.86,North,0,2.0,6.0,83,0.00,,,0.00,meteohub,2013-10-07 15:07:00,
2013-10-07 11:12:00,81.5,75.9,29.86,North,0,4.0,6.0,83,0.00,,,0.00,meteohub,2013-10-07 15:12:00,
2013-10-07 11:17:00,81.7,75.6,29.86,North,0,2.0,6.0,82,0.00,,,0.00,meteohub,2013-10-07 15:17:00,
2013-10-07 11:22:00,81.9,76.1,29.86,North,0,0.0,5.0,83,0.00,,,0.00,meteohub,2013-10-07 15:22:00,
2013-10-07 11:27:00,82.4,76.3,29.86,North,0,3.0,5.0,82,0.00,,,0.00,meteohub,2013-10-07 15:27:00,
2013-10-07 11:32:00,82.8,75.9,29.86,North,0,5.0,5.0,80,0.00,,,0.00,meteohub,2013-10-07 15:32:00,
2013-10-07 11:37:00,82.6,75.7,29.86,North,0,4.0,7.0,80,0.00,,,0.00,meteohub,2013-10-07 15:37:00,
2013-10-07 11:42:00,82.6,75.7,29.86,North,0,2.0,7.0,80,0.00,,,0.00,meteohub,2013-10-07 15:42:00,
2013-10-07 11:47:00,82.6,75.7,29.86,North,0,1.0,7.0,80,0.00,,,0.00,meteohub,2013-10-07 15:47:00,
2013-10-07 11:53:00,82.6,75.4,29.85,North,0,6.0,6.0,79,0.00,,,0.00,meteohub,2013-10-07 15:53:00,
2013-10-07 11:59:00,82.6,75.0,29.86,North,0,2.0,6.0,78,0.00,,,0.00,meteohub,2013-10-07 15:59:00,
2013-10-07 12:05:00,82.6,74.7,29.85,North,0,4.0,7.0,77,0.00,,,0.00,meteohub,2013-10-07 16:05:00,
2013-10-07 12:10:00,82.6,74.7,29.86,North,0,2.0,7.0,77,0.00,,,0.00,meteohub,2013-10-07 16:10:00,
2013-10-07 12:16:00,82.6,74.3,29.85,North,0,2.0,8.0,76,0.00,,,0.00,meteohub,2013-10-07 16:16:00,
2013-10-07 12:22:00,82.6,74.3,29.85,North,0,2.0,8.0,76,0.00,,,0.00,meteohub,2013-10-07 16:22:00,
2013-10-07 12:27:00,82.6,74.3,29.84,North,0,2.0,8.0,76,0.00,,,0.00,meteohub,2013-10-07 16:27:00,
2013-10-07 12:32:00,82.6,74.3,29.84,North,0,2.0,6.0,76,0.00,,,0.00,meteohub,2013-10-07 16:32:00,
2013-10-07 12:37:00,82.8,74.5,29.84,North,0,2.0,6.0,76,0.00,,,0.00,meteohub,2013-10-07 16:37:00,
2013-10-07 12:42:00,82.9,74.1,29.84,North,0,3.0,6.0,75,0.00,,,0.00,meteohub,2013-10-07 16:42:00,
2013-10-07 12:47:00,82.9,74.1,29.83,North,0,1.0,5.0,75,0.00,,,0.00,meteohub,2013-10-07 16:47:00,
2013-10-07 12:52:00,83.1,73.9,29.83,North,0,0.0,5.0,74,0.00,,,0.00,meteohub,2013-10-07 16:52:00,
2013-10-07 12:57:00,83.5,74.3,29.84,North,0,1.0,5.0,74,0.00,,,0.00,meteohub,2013-10-07 16:57:00,
2013-10-07 13:02:00,83.7,74.5,29.83,North,0,2.0,5.0,74,0.00,,,0.00,meteohub,2013-10-07 17:02:00,
2013-10-07 13:07:00,83.8,74.3,29.83,North,0,2.0,7.0,73,0.00,,,0.00,meteohub,2013-10-07 17:07:00,
2013-10-07 13:12:00,84.0,73.9,29.83,North,0,2.0,7.0,72,0.00,,,0.00,meteohub,2013-10-07 17:12:00,
2013-10-07 13:17:00,84.2,74.1,29.83,North,0,3.0,7.0,72,0.00,,,0.00,meteohub,2013-10-07 17:17:00,
2013-10-07 13:22:00,84.4,74.3,29.83,North,0,2.0,5.0,72,0.00,,,0.00,meteohub,2013-10-07 17:22:00,
2013-10-07 13:27:00,84.6,74.5,29.82,North,0,0.0,4.0,72,0.00,,,0.00,meteohub,2013-10-07 17:27:00,
2013-10-07 13:32:00,84.7,74.7,29.82,North,0,0.0,4.0,72,0.00,,,0.00,meteohub,2013-10-07 17:32:00,
2013-10-07 13:37:00,85.6,74.3,29.82,North,0,2.0,5.0,69,0.00,,,0.00,meteohub,2013-10-07 17:37:00,
2013-10-07 13:42:00,85.8,74.5,29.82,North,0,2.0,5.0,69,0.00,,,0.00,meteohub,2013-10-07 17:42:00,
2013-10-07 13:47:00,85.8,73.9,29.82,North,0,2.0,5.0,68,0.00,,,0.00,meteohub,2013-10-07 17:47:00,
2013-10-07 13:52:00,85.6,73.9,29.81,North,0,3.0,5.0,68,0.00,,,0.00,meteohub,2013-10-07 17:52:00,
2013-10-07 13:57:00,85.6,73.9,29.81,North,0,0.0,5.0,68,0.00,,,0.00,meteohub,2013-10-07 17:57:00,
2013-10-07 14:02:00,85.8,73.9,29.81,North,0,0.0,5.0,68,0.00,,,0.00,meteohub,2013-10-07 18:02:00,
2013-10-07 14:08:00,86.0,74.1,29.81,North,0,1.0,5.0,68,0.00,,,0.00,meteohub,2013-10-07 18:08:00,
2013-10-07 14:14:00,86.0,74.7,29.80,North,0,1.0,5.0,69,0.00,,,0.00,meteohub,2013-10-07 18:14:00,
2013-10-07 14:19:00,86.2,74.3,29.80,North,0,2.0,4.0,68,0.00,,,0.00,meteohub,2013-10-07 18:19:00,
2013-10-07 14:25:00,86.0,74.1,29.79,North,0,3.0,5.0,68,0.00,,,0.00,meteohub,2013-10-07 18:25:00,
2013-10-07 14:31:00,86.0,74.7,29.79,North,0,0.0,5.0,69,0.00,,,0.00,meteohub,2013-10-07 18:31:00,
2013-10-07 14:37:00,86.2,74.3,29.79,North,0,0.0,5.0,68,0.00,,,0.00,meteohub,2013-10-07 18:37:00,
2013-10-07 14:42:00,86.4,74.1,29.79,North,0,3.0,3.0,67,0.00,,,0.00,meteohub,2013-10-07 18:42:00,
2013-10-07 14:47:00,86.2,74.3,29.79,North,0,1.0,4.0,68,0.00,,,0.00,meteohub,2013-10-07 18:47:00,
2013-10-07 14:52:00,86.2,73.9,29.78,North,0,2.0,4.0,67,0.00,,,0.00,meteohub,2013-10-07 18:52:00,
2013-10-07 14:57:00,85.3,76.1,29.79,North,0,5.0,10.0,74,0.00,,,0.00,meteohub,2013-10-07 18:57:00,
2013-10-07 15:02:00,82.6,75.7,29.79,North,0,6.0,13.0,80,0.00,,,0.00,meteohub,2013-10-07 19:02:00,
2013-10-07 15:07:00,80.1,74.8,29.79,North,0,5.0,15.0,84,0.01,,,0.01,meteohub,2013-10-07 19:07:00,
2013-10-07 15:12:00,78.6,74.5,29.80,North,0,2.0,15.0,87,0.02,,,0.02,meteohub,2013-10-07 19:12:00,
2013-10-07 15:17:00,77.9,74.5,29.80,North,0,5.0,12.0,89,0.04,,,0.04,meteohub,2013-10-07 19:17:00,
2013-10-07 15:22:00,77.5,74.7,29.81,North,0,2.0,12.0,91,0.07,,,0.07,meteohub,2013-10-07 19:22:00,
2013-10-07 15:27:00,77.2,74.7,29.80,North,0,0.0,9.0,92,0.10,,,0.10,meteohub,2013-10-07 19:27:00,
2013-10-07 15:32:00,77.0,74.5,29.81,North,0,0.0,6.0,92,0.12,,,0.12,meteohub,2013-10-07 19:32:00,
2013-10-07 15:37:00,76.8,74.7,29.81,North,0,0.0,6.0,93,0.13,,,0.13,meteohub,2013-10-07 19:37:00,
2013-10-07 15:42:00,76.6,74.1,29.80,North,0,3.0,4.0,92,0.13,,,0.13,meteohub,2013-10-07 19:42:00,
2013-10-07 15:47:00,76.6,74.5,29.80,North,0,2.0,4.0,93,0.13,,,0.13,meteohub,2013-10-07 19:47:00,
2013-10-07 15:52:00,76.8,75.0,29.79,North,0,0.0,4.0,94,0.13,,,0.13,meteohub,2013-10-07 19:52:00,
2013-10-07 15:57:00,77.0,75.2,29.79,North,0,3.0,4.0,94,0.13,,,0.13,meteohub,2013-10-07 19:57:00,
2013-10-07 16:02:00,77.0,74.8,29.78,North,0,0.0,4.0,93,0.13,,,0.13,meteohub,2013-10-07 20:02:00,
2013-10-07 16:07:00,77.2,75.4,29.79,North,0,2.0,4.0,94,0.12,,,0.13,meteohub,2013-10-07 20:07:00,
2013-10-07 16:12:00,77.4,75.6,29.80,North,0,2.0,4.0,94,0.10,,,0.13,meteohub,2013-10-07 20:12:00,
2013-10-07 16:17:00,77.5,75.7,29.80,North,0,2.0,4.0,94,0.08,,,0.13,meteohub,2013-10-07 20:17:00,
2013-10-07 16:22:00,77.4,75.2,29.79,North,0,2.0,4.0,93,0.05,,,0.13,meteohub,2013-10-07 20:22:00,
2013-10-07 16:27:00,77.4,75.6,29.78,North,0,1.0,5.0,94,0.03,,,0.13,meteohub,2013-10-07 20:27:00,
2013-10-07 16:32:00,77.4,75.2,29.79,North,0,3.0,5.0,93,0.01,,,0.13,meteohub,2013-10-07 20:32:00,
2013-10-07 16:37:00,77.5,75.4,29.79,North,0,2.0,4.0,93,0.00,,,0.13,meteohub,2013-10-07 20:37:00,
2013-10-07 16:42:00,77.5,75.4,29.79,North,0,5.0,5.0,93,0.00,,,0.13,meteohub,2013-10-07 20:42:00,
2013-10-07 16:47:00,77.5,75.0,29.79,North,0,3.0,7.0,92,0.00,,,0.13,meteohub,2013-10-07 20:47:00,
2013-10-07 16:52:00,77.5,75.0,29.79,North,0,0.0,8.0,92,0.00,,,0.13,meteohub,2013-10-07 20:52:00,
2013-10-07 16:57:00,77.5,75.0,29.79,North,0,4.0,8.0,92,0.00,,,0.13,meteohub,2013-10-07 20:57:00,
2013-10-07 17:02:00,77.5,75.0,29.79,North,0,2.0,8.0,92,0.00,,,0.13,meteohub,2013-10-07 21:02:00,
2013-10-07 17:07:00,77.4,74.5,29.79,North,0,4.0,7.0,91,0.00,,,0.13,meteohub,2013-10-07 21:07:00,
2013-10-07 17:12:00,77.2,74.3,29.79,North,0,5.0,7.0,91,0.00,,,0.13,meteohub,2013-10-07 21:12:00,
2013-10-07 17:17:00,76.8,74.3,29.79,North,0,3.0,9.0,92,0.00,,,0.13,meteohub,2013-10-07 21:17:00,
2013-10-07 17:22:00,76.8,74.3,29.79,North,0,1.0,11.0,92,0.00,,,0.13,meteohub,2013-10-07 21:22:00,
2013-10-07 17:27:00,76.6,74.1,29.79,North,0,5.0,11.0,92,0.00,,,0.13,meteohub,2013-10-07 21:27:00,
2013-10-07 17:32:00,76.6,74.1,29.79,North,0,0.0,11.0,92,0.00,,,0.13,meteohub,2013-10-07 21:32:00,
2013-10-07 17:37:00,76.6,74.5,29.79,North,0,6.0,8.0,93,0.00,,,0.13,meteohub,2013-10-07 21:37:00,
2013-10-07 17:42:00,76.6,74.1,29.79,North,0,0.0,7.0,92,0.00,,,0.13,meteohub,2013-10-07 21:42:00,
2013-10-07 17:47:00,76.8,74.7,29.79,North,0,2.0,6.0,93,0.00,,,0.13,meteohub,2013-10-07 21:47:00,
2013-10-07 17:52:00,76.8,74.3,29.79,North,0,2.0,6.0,92,0.00,,,0.13,meteohub,2013-10-07 21:52:00,
2013-10-07 17:57:00,76.8,74.3,29.79,North,0,2.0,4.0,92,0.00,,,0.13,meteohub,2013-10-07 21:57:00,
2013-10-07 18:02:00,76.8,74.3,29.79,North,0,2.0,5.0,92,0.00,,,0.13,meteohub,2013-10-07 22:02:00,
2013-10-07 18:07:00,76.6,74.1,29.79,North,0,0.0,6.0,92,0.00,,,0.13,meteohub,2013-10-07 22:07:00,
2013-10-07 18:12:00,76.6,74.5,29.79,North,0,1.0,7.0,93,0.00,,,0.13,meteohub,2013-10-07 22:12:00,
2013-10-07 18:17:00,76.6,74.5,29.79,North,0,3.0,7.0,93,0.00,,,0.13,meteohub,2013-10-07 22:17:00,
2013-10-07 18:22:00,76.6,74.5,29.79,North,0,0.0,7.0,93,0.00,,,0.13,meteohub,2013-10-07 22:22:00,
2013-10-07 18:27:00,76.6,74.5,29.78,North,0,3.0,5.0,93,0.00,,,0.13,meteohub,2013-10-07 22:27:00,
2013-10-07 18:32:00,76.5,74.3,29.79,North,0,3.0,5.0,93,0.00,,,0.13,meteohub,2013-10-07 22:32:00,
2013-10-07 18:37:00,76.5,74.3,29.79,North,0,4.0,5.0,93,0.00,,,0.13,meteohub,2013-10-07 22:37:00,
2013-10-07 18:42:00,76.5,74.3,29.79,North,0,1.0,5.0,93,0.00,,,0.13,meteohub,2013-10-07 22:42:00,
2013-10-07 18:47:00,76.3,74.5,29.79,North,0,3.0,5.0,94,0.00,,,0.13,meteohub,2013-10-07 22:47:00,
2013-10-07 18:52:00,76.3,74.1,29.79,North,0,2.0,5.0,93,0.00,,,0.13,meteohub,2013-10-07 22:52:00,
2013-10-07 18:57:00,76.3,74.1,29.79,North,0,3.0,7.0,93,0.00,,,0.13,meteohub,2013-10-07 22:57:00,
2013-10-07 19:02:00,76.1,73.9,29.79,North,0,3.0,8.0,93,0.00,,,0.13,meteohub,2013-10-07 23:02:00,
2013-10-07 19:07:00,76.1,73.9,29.80,North,0,2.0,8.0,93,0.00,,,0.13,meteohub,2013-10-07 23:07:00,
2013-10-07 19:12:00,75.9,73.8,29.81,North,0,0.0,6.0,93,0.00,,,0.13,meteohub,2013-10-07 23:12:00,
2013-10-07 19:17:00,75.9,73.8,29.81,North,0,0.0,6.0,93,0.00,,,0.13,meteohub,2013-10-07 23:17:00,
2013-10-07 19:22:00,75.9,74.1,29.81,North,0,1.0,6.0,94,0.00,,,0.13,meteohub,2013-10-07 23:22:00,
2013-10-07 19:27:00,75.7,73.6,29.81,North,0,2.0,5.0,93,0.00,,,0.13,meteohub,2013-10-07 23:27:00,
2013-10-07 19:32:00,75.6,73.4,29.81,North,0,3.0,6.0,93,0.00,,,0.13,meteohub,2013-10-07 23:32:00,
2013-10-07 19:37:00,75.4,73.2,29.81,North,0,1.0,6.0,93,0.00,,,0.13,meteohub,2013-10-07 23:37:00,
2013-10-07 19:42:00,75.4,73.2,29.81,North,0,0.0,6.0,93,0.00,,,0.13,meteohub,2013-10-07 23:42:00,
2013-10-07 19:47:00,75.4,73.2,29.81,North,0,1.0,4.0,93,0.00,,,0.13,meteohub,2013-10-07 23:47:00,
2013-10-07 19:52:00,75.4,73.2,29.81,North,0,2.0,4.0,93,0.00,,,0.13,meteohub,2013-10-07 23:52:00,
2013-10-07 19:57:00,75.4,73.2,29.81,North,0,1.0,4.0,93,0.00,,,0.13,meteohub,2013-10-07 23:57:00,
2013-10-07 20:02:00,75.2,73.0,29.82,North,0,1.0,4.0,93,0.00,,,0.13,meteohub,2013-10-08 00:02:00,
2013-10-07 20:07:00,75.2,73.0,29.82,North,0,2.0,4.0,93,0.00,,,0.00,meteohub,2013-10-08 00:07:00,
2013-10-07 20:12:00,75.0,72.9,29.82,North,0,2.0,4.0,93,0.00,,,0.00,meteohub,2013-10-08 00:12:00,
2013-10-07 20:17:00,75.0,72.9,29.82,North,0,0.0,4.0,93,0.00,,,0.00,meteohub,2013-10-08 00:17:00,
2013-10-07 20:22:00,75.0,72.9,29.82,North,0,3.0,4.0,93,0.00,,,0.00,meteohub,2013-10-08 00:22:00,
2013-10-07 20:27:00,75.0,72.9,29.81,North,0,2.0,3.0,93,0.00,,,0.00,meteohub,2013-10-08 00:27:00,
2013-10-07 20:32:00,75.0,72.9,29.81,North,0,0.0,4.0,93,0.00,,,0.00,meteohub,2013-10-08 00:32:00,
2013-10-07 20:37:00,74.8,72.7,29.81,North,0,1.0,4.0,93,0.00,,,0.00,meteohub,2013-10-08 00:37:00,
2013-10-07 20:42:00,74.8,72.7,29.81,North,0,0.0,4.0,93,0.00,,,0.00,meteohub,2013-10-08 00:42:00,
2013-10-07 20:47:00,74.7,72.5,29.82,North,0,2.0,5.0,93,0.00,,,0.00,meteohub,2013-10-08 00:47:00,
2013-10-07 20:52:00,74.7,72.5,29.82,North,0,3.0,5.0,93,0.00,,,0.00,meteohub,2013-10-08 00:52:00,
2013-10-07 20:57:00,74.5,72.3,29.82,North,0,5.0,5.0,93,0.00,,,0.00,meteohub,2013-10-08 00:57:00,
2013-10-07 21:02:00,74.5,72.3,29.83,North,0,1.0,5.0,93,0.00,,,0.00,meteohub,2013-10-08 01:02:00,
2013-10-07 21:07:00,74.5,72.3,29.83,North,0,3.0,6.0,93,0.00,,,0.00,meteohub,2013-10-08 01:07:00,
2013-10-07 21:12:00,74.5,72.3,29.83,North,0,1.0,6.0,93,0.00,,,0.00,meteohub,2013-10-08 01:12:00,
2013-10-07 21:17:00,74.5,72.3,29.83,North,0,0.0,6.0,93,0.00,,,0.00,meteohub,2013-10-08 01:17:00,
2013-10-07 21:22:00,74.5,72.3,29.83,North,0,0.0,5.0,93,0.00,,,0.00,meteohub,2013-10-08 01:22:00,
2013-10-07 21:27:00,74.5,72.3,29.83,North,0,0.0,2.0,93,0.00,,,0.00,meteohub,2013-10-08 01:27:00,
2013-10-07 21:32:00,74.5,72.3,29.84,North,0,3.0,3.0,93,0.00,,,0.00,meteohub,2013-10-08 01:32:00,
2013-10-07 21:37:00,74.5,72.3,29.84,North,0,0.0,3.0,93,0.00,,,0.00,meteohub,2013-10-08 01:37:00,
2013-10-07 21:42:00,74.5,72.3,29.84,North,0,1.0,3.0,93,0.00,,,0.00,meteohub,2013-10-08 01:42:00,
2013-10-07 21:47:00,74.5,72.3,29.84,North,0,0.0,3.0,93,0.00,,,0.00,meteohub,2013-10-08 01:47:00,
2013-10-07 21:52:00,74.7,72.5,29.84,North,0,4.0,4.0,93,0.01,,,0.01,meteohub,2013-10-08 01:52:00,
2013-10-07 21:57:00,74.5,72.7,29.84,North,0,2.0,8.0,94,0.02,,,0.01,meteohub,2013-10-08 01:57:00,
2013-10-07 22:02:00,74.5,72.7,29.83,North,0,1.0,8.0,94,0.03,,,0.03,meteohub,2013-10-08 02:02:00,
2013-10-07 22:07:00,74.5,72.7,29.84,North,0,2.0,8.0,94,0.05,,,0.05,meteohub,2013-10-08 02:07:00,
2013-10-07 22:12:00,74.3,72.5,29.84,North,0,0.0,5.0,94,0.05,,,0.05,meteohub,2013-10-08 02:12:00,
2013-10-07 22:17:00,74.3,72.5,29.84,North,0,0.0,4.0,94,0.05,,,0.05,meteohub,2013-10-08 02:17:00,
2013-10-07 22:22:00,74.1,72.3,29.84,North,0,0.0,4.0,94,0.05,,,0.05,meteohub,2013-10-08 02:22:00,
2013-10-07 22:27:00,74.1,72.3,29.84,North,0,1.0,3.0,94,0.05,,,0.05,meteohub,2013-10-08 02:27:00,
2013-10-07 22:32:00,74.3,72.5,29.84,North,0,2.0,3.0,94,0.05,,,0.05,meteohub,2013-10-08 02:32:00,
2013-10-07 22:37:00,74.1,72.3,29.83,North,0,0.0,3.0,94,0.05,,,0.05,meteohub,2013-10-08 02:37:00,
2013-10-07 22:42:00,74.3,72.9,29.84,North,0,0.0,3.0,95,0.05,,,0.05,meteohub,2013-10-08 02:42:00,
2013-10-07 22:47:00,74.3,72.9,29.84,North,0,0.0,3.0,95,0.05,,,0.05,meteohub,2013-10-08 02:47:00,
2013-10-07 22:52:00,74.1,72.7,29.84,North,0,0.0,2.0,95,0.04,,,0.05,meteohub,2013-10-08 02:52:00,
2013-10-07 22:57:00,74.1,72.3,29.84,North,0,0.0,2.0,94,0.02,,,0.05,meteohub,2013-10-08 02:57:00,
2013-10-07 23:02:00,74.1,72.7,29.83,North,0,0.0,4.0,95,0.01,,,0.05,meteohub,2013-10-08 03:02:00,
2013-10-07 23:07:00,74.1,72.7,29.83,North,0,0.0,4.0,95,0.00,,,0.05,meteohub,2013-10-08 03:07:00,
2013-10-07 23:12:00,74.1,72.7,29.83,North,0,1.0,4.0,95,0.00,,,0.05,meteohub,2013-10-08 03:12:00,
2013-10-07 23:17:00,74.1,72.7,29.83,North,0,0.0,2.0,95,0.00,,,0.05,meteohub,2013-10-08 03:17:00,
2013-10-07 23:22:00,74.1,72.7,29.83,North,0,0.0,2.0,95,0.00,,,0.05,meteohub,2013-10-08 03:22:00,
2013-10-07 23:27:00,74.1,72.7,29.84,North,0,0.0,2.0,95,0.00,,,0.05,meteohub,2013-10-08 03:27:00,
2013-10-07 23:32:00,74.3,73.0,29.84,North,0,0.0,0.0,96,0.00,,,0.05,meteohub,2013-10-08 03:32:00,
2013-10-07 23:37:00,74.5,73.2,29.84,North,0,0.0,0.0,96,0.00,,,0.05,meteohub,2013-10-08 03:37:00,
2013-10-07 23:42:00,74.5,73.2,29.83,North,0,0.0,0.0,96,0.00,,,0.05,meteohub,2013-10-08 03:42:00,
2013-10-07 23:47:00,74.5,73.2,29.83,North,0,0.0,0.0,96,0.00,,,0.05,meteohub,2013-10-08 03:47:00,
2013-10-07 23:52:00,74.5,73.2,29.83,North,0,0.0,3.0,96,0.00,,,0.05,meteohub,2013-10-08 03:52:00,
2013-10-07 23:57:00,74.7,73.4,29.83,North,0,0.0,3.0,96,0.00,,,0.05,meteohub,2013-10-08 03:57:00,